Location: Bo?a Wola
(50.4192°N, 19.7966°E)
Time: 04:10:49
(UTC+00:00)

CZ-4C R/B - Pass Details

Date: 19 September 2024
Orbit: 519 x 1471 km, 63.4° (Epoch: 09 October)

Event Time Altitude Azimuth Distance (km) Brightness Sun altitude
Exits shadow 02:38:05 - 304° (WNW) 2,666 4.5 -17.0°
Reaches altitude 10° 02:38:49 10° 308° (NW) 2,461 4.4 -16.9°
Maximum altitude 02:43:34 25° 4° (N) 1,850 4.2 -16.2°
Drops below altitude 10° 02:49:18 10° 57° (ENE) 3,023 6.4 -15.3°
Sets 02:52:55 0° 70° (ENE) 4,155 7.7 -14.8°
